Darstellungsparameter: Aktuell verwendete Einstellungen:
Skalierung der Graphiken ... ?
xyx+y,   Skalierungsfaktor:      Skalierung: Modus: x, Faktor: 1
Darstellungszeitraum ... ?
Vom - - bis: - -   Zeitraum: 10.06.2020 - 11.06.2020
Min/Max/Avg-Anzeige ... ?
Zeige MMA aktuell
Zeige MMA Monat
Zeige MMA alles
Zeige --A aktuell
Zeige --A Monat
Zeige --A alles
Keine MMA-Anzeige
MMA:
Average (ber die Originaldaten)
MMA-Basis: 10.06.2020 - 11.06.2020
Quicknavigation für Darstellung... ?
Tage:      1T, 2T, 3T, 5T -1T -2T -3T -5T +1T +2T +3T +5T
Wochen: 1W, 2W, 3W -1W -2W -3W +1W +2W +3W
Monate: 1M, 3M, 6M -1M -3M -6M +1M +3M +6M
Jahre:    1J, 3J, 5J, 10J -1J -3J -5J -10J +1J +3J +5J +10J
Nutze für die Darstellung ... ?
Originaldaten oder Mittelwerte auf ...
Stundenbasis Tagesbasis Wochenbasis
Monatsbasis Jahresbasis      Datenbasis: Original-Daten
Darstellen als:
Statistik (Auto) Statistik J:M      Darstellung:
Zur Graphik,    zurück zur Übersicht aller Sensoren.
 
Tabellarische Datenbersicht: ?
 
Sensor: Nr:Datum:Temp:Abs-Feuchte:Windchill:Wind:
Aussen-T/F 1 10-06-2020 00:00:00 13.1 C 10.95 g/m*3 13.1 C 4.8 km/h
2 10-06-2020 00:05:00 13.1 C 10.95 g/m*3 13.1 C 0 km/h
3 10-06-2020 00:10:00 13 C 10.89 g/m*3 13 C 0 km/h
4 10-06-2020 00:15:00 13 C 10.89 g/m*3 13 C 3.2 km/h
5 10-06-2020 00:20:00 12.9 C 10.82 g/m*3 12.9 C 0 km/h
6 10-06-2020 00:25:00 12.9 C 10.82 g/m*3 12.9 C 0 km/h
7 10-06-2020 00:30:00 12.8 C 10.64 g/m*3 12.8 C 1.6 km/h
8 10-06-2020 00:35:00 12.8 C 10.64 g/m*3 12.8 C 0 km/h
9 10-06-2020 00:40:00 12.8 C 10.64 g/m*3 12.8 C 0 km/h
10 10-06-2020 00:45:00 12.8 C 10.75 g/m*3 12.8 C 0 km/h
11 10-06-2020 00:50:00 12.8 C 10.75 g/m*3 12.8 C 0 km/h
12 10-06-2020 00:55:00 12.8 C 10.75 g/m*3 12.8 C 0 km/h
13 10-06-2020 01:00:00 12.8 C 10.75 g/m*3 12.8 C 0 km/h
14 10-06-2020 01:05:00 12.8 C 10.75 g/m*3 12.8 C 0 km/h
15 10-06-2020 01:10:00 12.8 C 10.75 g/m*3 12.8 C 0 km/h
16 10-06-2020 01:15:00 12.7 C 10.69 g/m*3 12.7 C 0 km/h
17 10-06-2020 01:20:00 12.7 C 10.69 g/m*3 12.7 C 0 km/h
18 10-06-2020 01:25:00 12.7 C 10.69 g/m*3 12.7 C 0 km/h
19 10-06-2020 01:30:00 12.6 C 10.62 g/m*3 12.6 C 0 km/h
20 10-06-2020 01:35:00 12.4 C 10.38 g/m*3 12.4 C 0 km/h
21 10-06-2020 01:40:00 12.4 C 10.38 g/m*3 12.4 C 1.6 km/h
22 10-06-2020 01:45:00 12.3 C 10.42 g/m*3 12.3 C 3.2 km/h
23 10-06-2020 01:50:00 12.3 C 10.42 g/m*3 12.3 C 1.6 km/h
24 10-06-2020 01:55:00 12.3 C 10.42 g/m*3 12.3 C 1.6 km/h
25 10-06-2020 02:00:00 12.3 C 10.42 g/m*3 12.3 C 3.2 km/h
Sensor: Nr:Datum:Temp:Abs-Feuchte:Windchill:Wind:
Aussen-T/F 26 10-06-2020 02:05:00 12.3 C 10.42 g/m*3 12.3 C 1.6 km/h
27 10-06-2020 02:10:00 12.3 C 10.42 g/m*3 12.3 C 1.6 km/h
28 10-06-2020 02:15:00 12.3 C 10.42 g/m*3 12.3 C 1.6 km/h
29 10-06-2020 02:20:00 12.3 C 10.42 g/m*3 12.3 C 0 km/h
30 10-06-2020 02:25:00 12.3 C 10.42 g/m*3 12.3 C 0 km/h
31 10-06-2020 02:30:00 12.3 C 10.42 g/m*3 12.3 C 0 km/h
32 10-06-2020 02:35:00 12.3 C 10.42 g/m*3 12.3 C 0 km/h
33 10-06-2020 02:40:00 12.3 C 10.42 g/m*3 12.3 C 0 km/h
34 10-06-2020 02:45:00 12.3 C 10.42 g/m*3 12.3 C 0 km/h
35 10-06-2020 02:50:00 12.3 C 10.42 g/m*3 12.3 C 0 km/h
36 10-06-2020 02:55:00 12.4 C 10.49 g/m*3 12.4 C 0 km/h
37 10-06-2020 03:00:00 12.4 C 10.49 g/m*3 12.4 C 0 km/h
38 10-06-2020 03:05:00 12.5 C 10.55 g/m*3 12.5 C 0 km/h
39 10-06-2020 03:10:00 12.5 C 10.55 g/m*3 12.5 C 0 km/h
40 10-06-2020 03:15:00 12.6 C 10.62 g/m*3 12.6 C 0 km/h
41 10-06-2020 03:20:00 12.6 C 10.62 g/m*3 12.6 C 0 km/h
42 10-06-2020 03:25:00 12.6 C 10.62 g/m*3 12.6 C 0 km/h
43 10-06-2020 03:30:00 12.6 C 10.62 g/m*3 12.6 C 0 km/h
44 10-06-2020 03:35:00 12.6 C 10.62 g/m*3 12.6 C 0 km/h
45 10-06-2020 03:40:00 12.6 C 10.62 g/m*3 12.6 C 0 km/h
46 10-06-2020 03:45:00 12.6 C 10.62 g/m*3 12.6 C 0 km/h
47 10-06-2020 03:50:00 12.6 C 10.62 g/m*3 12.6 C 0 km/h
48 10-06-2020 03:55:00 12.6 C 10.62 g/m*3 12.6 C 0 km/h
49 10-06-2020 04:00:00 12.6 C 10.62 g/m*3 12.6 C 0 km/h
50 10-06-2020 04:05:00 12.6 C 10.62 g/m*3 12.6 C 1.6 km/h
Sensor: Nr:Datum:Temp:Abs-Feuchte:Windchill:Wind:
Aussen-T/F 51 10-06-2020 04:10:00 12.6 C 10.62 g/m*3 12.6 C 0 km/h
52 10-06-2020 04:15:00 12.6 C 10.62 g/m*3 12.6 C 0 km/h
53 10-06-2020 04:20:00 12.6 C 10.62 g/m*3 12.6 C 0 km/h
54 10-06-2020 04:25:00 12.6 C 10.62 g/m*3 12.6 C 0 km/h
55 10-06-2020 04:30:00 12.6 C 10.62 g/m*3 12.6 C 0 km/h
56 10-06-2020 04:35:00 12.6 C 10.62 g/m*3 12.6 C 0 km/h
57 10-06-2020 04:40:00 12.6 C 10.62 g/m*3 12.6 C 0 km/h
58 10-06-2020 04:45:00 12.6 C 10.62 g/m*3 12.6 C 0 km/h
59 10-06-2020 04:50:00 12.6 C 10.62 g/m*3 12.6 C 0 km/h
60 10-06-2020 04:55:00 12.6 C 10.62 g/m*3 12.6 C 0 km/h
61 10-06-2020 05:00:00 12.6 C 10.62 g/m*3 12.6 C 0 km/h
62 10-06-2020 05:05:00 12.6 C 10.62 g/m*3 12.6 C 0 km/h
63 10-06-2020 05:10:00 12.7 C 10.69 g/m*3 12.7 C 0 km/h
64 10-06-2020 05:15:00 12.7 C 10.69 g/m*3 12.7 C 0 km/h
65 10-06-2020 05:20:00 12.7 C 10.69 g/m*3 12.7 C 0 km/h
66 10-06-2020 05:25:00 12.7 C 10.69 g/m*3 12.7 C 0 km/h
67 10-06-2020 05:30:00 12.7 C 10.69 g/m*3 12.7 C 0 km/h
68 10-06-2020 05:35:00 12.7 C 10.69 g/m*3 12.7 C 0 km/h
69 10-06-2020 05:40:00 12.7 C 10.69 g/m*3 12.7 C 0 km/h
70 10-06-2020 05:45:00 12.7 C 10.69 g/m*3 12.7 C 0 km/h
71 10-06-2020 05:50:00 12.7 C 10.69 g/m*3 12.7 C 0 km/h
72 10-06-2020 05:55:00 12.7 C 10.69 g/m*3 12.7 C 0 km/h
73 10-06-2020 06:00:00 12.7 C 10.8 g/m*3 12.7 C 0 km/h
74 10-06-2020 06:05:00 12.7 C 10.8 g/m*3 12.7 C 0 km/h
75 10-06-2020 06:10:00 12.8 C 10.87 g/m*3 12.8 C 0 km/h
Sensor: Nr:Datum:Temp:Abs-Feuchte:Windchill:Wind:
Aussen-T/F 76 10-06-2020 06:15:00 12.8 C 10.87 g/m*3 12.8 C 0 km/h
77 10-06-2020 06:20:00 12.8 C 10.87 g/m*3 12.8 C 0 km/h
78 10-06-2020 06:25:00 12.9 C 10.93 g/m*3 12.9 C 0 km/h
79 10-06-2020 06:30:00 12.9 C 10.93 g/m*3 12.9 C 0 km/h
80 10-06-2020 06:35:00 13 C 11 g/m*3 13 C 0 km/h
81 10-06-2020 06:40:00 13.1 C 11.07 g/m*3 13.1 C 0 km/h
82 10-06-2020 06:45:00 13.2 C 11.14 g/m*3 13.2 C 0 km/h
83 10-06-2020 06:50:00 13.2 C 11.14 g/m*3 13.2 C 0 km/h
84 10-06-2020 06:55:00 13.3 C 11.21 g/m*3 13.3 C 1.6 km/h
85 10-06-2020 07:00:00 13.3 C 11.21 g/m*3 13.3 C 3.2 km/h
86 10-06-2020 07:05:00 13.3 C 11.21 g/m*3 13.3 C 0 km/h
87 10-06-2020 07:10:00 13.3 C 11.21 g/m*3 13.3 C 1.6 km/h
88 10-06-2020 07:15:00 13.3 C 11.21 g/m*3 13.3 C 0 km/h
89 10-06-2020 07:20:00 13.4 C 11.28 g/m*3 13.4 C 0 km/h
90 10-06-2020 07:25:00 13.3 C 11.09 g/m*3 13.3 C 0 km/h
91 10-06-2020 07:30:00 13.3 C 11.09 g/m*3 13.3 C 0 km/h
92 10-06-2020 07:35:00 13.4 C 11.28 g/m*3 13.4 C 0 km/h
93 10-06-2020 07:40:00 13.4 C 11.28 g/m*3 13.4 C 0 km/h
94 10-06-2020 07:45:00 13.4 C 11.16 g/m*3 13.4 C 0 km/h
95 10-06-2020 07:50:00 13.5 C 11.23 g/m*3 13.5 C 0 km/h
96 10-06-2020 07:55:00 13.6 C 11.3 g/m*3 13.6 C 0 km/h
97 10-06-2020 08:00:00 13.6 C 11.3 g/m*3 13.6 C 0 km/h
98 10-06-2020 08:05:00 13.6 C 11.3 g/m*3 13.6 C 0 km/h
99 10-06-2020 08:10:00 13.7 C 11.37 g/m*3 13.7 C 0 km/h
100 10-06-2020 08:15:00 13.7 C 11.37 g/m*3 13.7 C 0 km/h
Sensor: Nr:Datum:Temp:Abs-Feuchte:Windchill:Wind:
Aussen-T/F 101 10-06-2020 08:20:00 13.8 C 11.44 g/m*3 13.8 C 0 km/h
102 10-06-2020 08:25:00 13.8 C 11.44 g/m*3 13.8 C 0 km/h
103 10-06-2020 08:30:00 13.8 C 11.44 g/m*3 13.8 C 0 km/h
104 10-06-2020 08:35:00 13.9 C 11.51 g/m*3 13.9 C 0 km/h
105 10-06-2020 08:40:00 14 C 11.58 g/m*3 14 C 1.6 km/h
106 10-06-2020 08:45:00 14.1 C 11.65 g/m*3 14.1 C 0 km/h
107 10-06-2020 08:50:00 14.1 C 11.53 g/m*3 14.1 C 0 km/h
108 10-06-2020 08:55:00 14.2 C 11.6 g/m*3 14.2 C 1.6 km/h
109 10-06-2020 09:00:00 14.3 C 11.67 g/m*3 14.3 C 0 km/h
110 10-06-2020 09:05:00 14.3 C 11.67 g/m*3 14.3 C 4.8 km/h
111 10-06-2020 09:10:00 14.5 C 11.69 g/m*3 14.5 C 3.2 km/h
112 10-06-2020 09:15:00 14.6 C 11.64 g/m*3 14.6 C 3.2 km/h
113 10-06-2020 09:20:00 14.7 C 11.71 g/m*3 14.7 C 4.8 km/h
114 10-06-2020 09:25:00 14.8 C 11.65 g/m*3 14.8 C 1.6 km/h
115 10-06-2020 09:30:00 14.9 C 11.73 g/m*3 14.9 C 1.6 km/h
116 10-06-2020 09:35:00 15.1 C 11.74 g/m*3 15.1 C 1.6 km/h
117 10-06-2020 09:40:00 15.1 C 11.74 g/m*3 15.1 C 3.2 km/h
118 10-06-2020 09:45:00 15.2 C 11.68 g/m*3 15.2 C 4.8 km/h
119 10-06-2020 09:50:00 15.2 C 11.55 g/m*3 15.2 C 1.6 km/h
120 10-06-2020 09:55:00 15.3 C 11.62 g/m*3 15.3 C 0 km/h
121 10-06-2020 10:00:00 15.3 C 11.62 g/m*3 15.3 C 1.6 km/h
122 10-06-2020 10:05:00 15.3 C 11.49 g/m*3 15.3 C 3.2 km/h
123 10-06-2020 10:10:00 15.4 C 11.56 g/m*3 15.4 C 3.2 km/h
124 10-06-2020 10:15:00 15.4 C 11.56 g/m*3 15.4 C 3.2 km/h
125 10-06-2020 10:20:00 15.6 C 11.7 g/m*3 15.6 C 0 km/h
Sensor: Nr:Datum:Temp:Abs-Feuchte:Windchill:Wind:
Aussen-T/F 126 10-06-2020 10:25:00 15.6 C 11.57 g/m*3 15.6 C 4.8 km/h
127 10-06-2020 10:30:00 15.6 C 11.57 g/m*3 15.6 C 6.4 km/h
128 10-06-2020 10:35:00 15.6 C 11.57 g/m*3 15.6 C 3.2 km/h
129 10-06-2020 10:40:00 15.6 C 11.57 g/m*3 15.6 C 3.2 km/h
130 10-06-2020 10:45:00 15.7 C 11.64 g/m*3 15.7 C 3.2 km/h
131 10-06-2020 10:50:00 15.7 C 11.64 g/m*3 15.7 C 1.6 km/h
132 10-06-2020 10:55:00 15.7 C 11.51 g/m*3 15.7 C 3.2 km/h
133 10-06-2020 11:00:00 15.7 C 11.64 g/m*3 15.7 C 1.6 km/h
134 10-06-2020 11:05:00 15.8 C 11.58 g/m*3 15.8 C 1.6 km/h
135 10-06-2020 11:10:00 15.8 C 11.58 g/m*3 15.8 C 3.2 km/h
136 10-06-2020 11:15:00 15.8 C 11.58 g/m*3 15.8 C 0 km/h
137 10-06-2020 11:20:00 15.8 C 11.58 g/m*3 15.8 C 1.6 km/h
138 10-06-2020 11:25:00 15.7 C 11.51 g/m*3 15.7 C 3.2 km/h
139 10-06-2020 11:30:00 15.7 C 11.51 g/m*3 15.7 C 1.6 km/h
140 10-06-2020 11:35:00 15.7 C 11.51 g/m*3 15.7 C 0 km/h
141 10-06-2020 11:40:00 15.8 C 11.71 g/m*3 15.8 C 1.6 km/h
142 10-06-2020 11:45:00 15.8 C 11.85 g/m*3 15.8 C 0 km/h
143 10-06-2020 11:50:00 15.7 C 11.77 g/m*3 15.7 C 1.6 km/h
144 10-06-2020 11:55:00 15.7 C 11.77 g/m*3 15.7 C 4.8 km/h
145 10-06-2020 12:00:00 15.6 C 11.57 g/m*3 15.6 C 8.1 km/h
146 10-06-2020 12:05:00 15.5 C 11.37 g/m*3 15.5 C 12.9 km/h
147 10-06-2020 12:10:00 15.4 C 11.17 g/m*3 15.4 C 12.9 km/h
148 10-06-2020 12:15:00 15.4 C 11.17 g/m*3 15.4 C 8.1 km/h
149 10-06-2020 12:20:00 15.4 C 11.3 g/m*3 15.4 C 8.1 km/h
150 10-06-2020 12:25:00 15.4 C 11.3 g/m*3 15.4 C 8.1 km/h
Sensor: Nr:Datum:Temp:Abs-Feuchte:Windchill:Wind:
Aussen-T/F 151 10-06-2020 12:30:00 15.4 C 11.3 g/m*3 15.4 C 6.4 km/h
152 10-06-2020 12:35:00 15.4 C 11.17 g/m*3 15.4 C 11.3 km/h
153 10-06-2020 12:40:00 15.5 C 11.37 g/m*3 15.5 C 3.2 km/h
154 10-06-2020 12:45:00 15.6 C 11.44 g/m*3 15.6 C 3.2 km/h
155 10-06-2020 12:50:00 15.6 C 11.3 g/m*3 15.6 C 8.1 km/h
156 10-06-2020 12:55:00 15.5 C 11.24 g/m*3 15.5 C 6.4 km/h
157 10-06-2020 13:00:00 15.4 C 11.17 g/m*3 15.4 C 6.4 km/h
158 10-06-2020 13:05:00 15.5 C 11.37 g/m*3 15.5 C 4.8 km/h
159 10-06-2020 13:10:00 15.6 C 11.3 g/m*3 15.6 C 6.4 km/h
160 10-06-2020 13:15:00 15.5 C 11.37 g/m*3 15.5 C 9.7 km/h
161 10-06-2020 13:20:00 15.4 C 11.3 g/m*3 15.4 C 8.1 km/h
162 10-06-2020 13:25:00 15.4 C 11.3 g/m*3 15.4 C 8.1 km/h
163 10-06-2020 13:30:00 15.4 C 11.17 g/m*3 15.4 C 9.7 km/h
164 10-06-2020 13:35:00 15.4 C 11.17 g/m*3 15.4 C 9.7 km/h
165 10-06-2020 13:40:00 15.6 C 11.17 g/m*3 15.6 C 8.1 km/h
166 10-06-2020 13:45:00 15.7 C 11.37 g/m*3 15.7 C 9.7 km/h
167 10-06-2020 13:50:00 15.8 C 11.17 g/m*3 15.8 C 11.3 km/h
168 10-06-2020 13:55:00 15.9 C 11.1 g/m*3 15.9 C 9.7 km/h
169 10-06-2020 14:00:00 16.1 C 11.24 g/m*3 16.1 C 4.8 km/h
170 10-06-2020 14:05:00 16.2 C 11.17 g/m*3 16.2 C 6.4 km/h
171 10-06-2020 14:10:00 16.3 C 11.1 g/m*3 16.3 C 6.4 km/h
172 10-06-2020 14:15:00 16.4 C 11.31 g/m*3 16.4 C 6.4 km/h
173 10-06-2020 14:20:00 16.4 C 11.03 g/m*3 16.4 C 6.4 km/h
174 10-06-2020 14:25:00 16.4 C 10.89 g/m*3 16.4 C 6.4 km/h
175 10-06-2020 14:30:00 16.3 C 10.82 g/m*3 16.3 C 6.4 km/h
Sensor: Nr:Datum:Temp:Abs-Feuchte:Windchill:Wind:
Aussen-T/F 176 10-06-2020 14:35:00 16.3 C 10.82 g/m*3 16.3 C 1.6 km/h
177 10-06-2020 14:40:00 16.4 C 11.03 g/m*3 16.4 C 1.6 km/h
178 10-06-2020 14:45:00 16.4 C 10.89 g/m*3 16.4 C 0 km/h
179 10-06-2020 14:50:00 16.6 C 11.02 g/m*3 16.6 C 1.6 km/h
180 10-06-2020 14:55:00 16.6 C 10.88 g/m*3 16.6 C 1.6 km/h
181 10-06-2020 15:00:00 16.6 C 10.88 g/m*3 16.6 C 0 km/h
182 10-06-2020 15:05:00 16.6 C 10.88 g/m*3 16.6 C 1.6 km/h
183 10-06-2020 15:10:00 16.7 C 10.94 g/m*3 16.7 C 0 km/h
184 10-06-2020 15:15:00 16.8 C 11.15 g/m*3 16.8 C 0 km/h
185 10-06-2020 15:20:00 16.9 C 11.08 g/m*3 16.9 C 3.2 km/h
186 10-06-2020 15:25:00 16.9 C 10.93 g/m*3 16.9 C 1.6 km/h
187 10-06-2020 15:30:00 17.1 C 11.06 g/m*3 17.1 C 0 km/h
188 10-06-2020 15:35:00 17.2 C 11.13 g/m*3 17.2 C 0 km/h
189 10-06-2020 15:40:00 17.3 C 11.05 g/m*3 17.3 C 0 km/h
190 10-06-2020 15:45:00 17.5 C 11.18 g/m*3 17.5 C 0 km/h
191 10-06-2020 15:50:00 17.7 C 11.47 g/m*3 17.7 C 0 km/h
192 10-06-2020 15:55:00 17.9 C 11.45 g/m*3 17.9 C 8.1 km/h
193 10-06-2020 16:00:00 18.1 C 11.74 g/m*3 18.1 C 3.2 km/h
194 10-06-2020 16:05:00 18.2 C 11.5 g/m*3 18.2 C 4.8 km/h
195 10-06-2020 16:10:00 18.3 C 11.73 g/m*3 18.3 C 6.4 km/h
196 10-06-2020 16:15:00 18.4 C 11.64 g/m*3 18.4 C 4.8 km/h
197 10-06-2020 16:20:00 18.6 C 11.78 g/m*3 18.6 C 1.6 km/h
198 10-06-2020 16:25:00 18.7 C 11.37 g/m*3 18.7 C 0 km/h
199 10-06-2020 16:30:00 18.9 C 11.34 g/m*3 18.9 C 0 km/h
200 10-06-2020 16:35:00 18.9 C 11.34 g/m*3 18.9 C 3.2 km/h
Sensor: Nr:Datum:Temp:Abs-Feuchte:Windchill:Wind:
Aussen-T/F 201 10-06-2020 16:40:00 18.9 C 11.34 g/m*3 18.9 C 1.6 km/h
202 10-06-2020 16:45:00 18.9 C 11.34 g/m*3 18.9 C 4.8 km/h
203 10-06-2020 16:50:00 18.9 C 11.18 g/m*3 18.9 C 6.4 km/h
204 10-06-2020 16:55:00 19 C 11.24 g/m*3 19 C 6.4 km/h
205 10-06-2020 17:00:00 19 C 11.24 g/m*3 19 C 6.4 km/h
206 10-06-2020 17:05:00 19.2 C 11.38 g/m*3 19.2 C 4.8 km/h
207 10-06-2020 17:10:00 19.2 C 11.54 g/m*3 19.2 C 3.2 km/h
208 10-06-2020 17:15:00 19.3 C 11.61 g/m*3 19.3 C 1.6 km/h
209 10-06-2020 17:20:00 19.6 C 11.65 g/m*3 19.6 C 3.2 km/h
210 10-06-2020 17:25:00 19.7 C 11.55 g/m*3 19.7 C 4.8 km/h
211 10-06-2020 17:30:00 19.9 C 11.34 g/m*3 19.9 C 1.6 km/h
212 10-06-2020 17:35:00 20 C 11.58 g/m*3 20 C 4.8 km/h
213 10-06-2020 17:40:00 20.1 C 11.99 g/m*3 20.1 C 1.6 km/h
214 10-06-2020 17:45:00 19.9 C 11 g/m*3 19.9 C 8.1 km/h
215 10-06-2020 17:50:00 19.8 C 11.27 g/m*3 19.8 C 6.4 km/h
216 10-06-2020 17:55:00 19.8 C 11.1 g/m*3 19.8 C 6.4 km/h
217 10-06-2020 18:00:00 19.8 C 11.1 g/m*3 19.8 C 3.2 km/h
218 10-06-2020 18:05:00 19.8 C 10.76 g/m*3 19.8 C 12.9 km/h
219 10-06-2020 18:10:00 19.7 C 10.87 g/m*3 19.7 C 11.3 km/h
220 10-06-2020 18:15:00 19.9 C 11 g/m*3 19.9 C 9.7 km/h
221 10-06-2020 18:20:00 19.9 C 10.82 g/m*3 19.9 C 8.1 km/h
222 10-06-2020 18:25:00 19.8 C 11.1 g/m*3 19.8 C 6.4 km/h
223 10-06-2020 18:30:00 19.8 C 10.76 g/m*3 19.8 C 6.4 km/h
224 10-06-2020 18:35:00 19.8 C 10.76 g/m*3 19.8 C 8.1 km/h
225 10-06-2020 18:40:00 19.8 C 11.1 g/m*3 19.8 C 6.4 km/h
Sensor: Nr:Datum:Temp:Abs-Feuchte:Windchill:Wind:
Aussen-T/F 226 10-06-2020 18:45:00 19.8 C 11.1 g/m*3 19.8 C 4.8 km/h
227 10-06-2020 18:50:00 19.9 C 11 g/m*3 19.9 C 8.1 km/h
228 10-06-2020 18:55:00 19.8 C 10.93 g/m*3 19.8 C 6.4 km/h
229 10-06-2020 19:00:00 19.7 C 11.04 g/m*3 19.7 C 1.6 km/h
230 10-06-2020 19:05:00 19.6 C 10.97 g/m*3 19.6 C 8.1 km/h
231 10-06-2020 19:10:00 19.4 C 11.01 g/m*3 19.4 C 6.4 km/h
232 10-06-2020 19:15:00 19.3 C 11.28 g/m*3 19.3 C 0 km/h
233 10-06-2020 19:20:00 19.4 C 12.18 g/m*3 19.4 C 0 km/h
234 10-06-2020 19:25:00 19.3 C 11.61 g/m*3 19.3 C 0 km/h
235 10-06-2020 19:30:00 19.3 C 12.44 g/m*3 19.3 C 0 km/h
236 10-06-2020 19:35:00 19.2 C 12.53 g/m*3 19.2 C 0 km/h
237 10-06-2020 19:40:00 19.2 C 12.7 g/m*3 19.2 C 0 km/h
238 10-06-2020 19:45:00 19.1 C 12.79 g/m*3 19.1 C 0 km/h
239 10-06-2020 19:50:00 18.9 C 12.47 g/m*3 18.9 C 0 km/h
240 10-06-2020 19:55:00 18.9 C 12.47 g/m*3 18.9 C 0 km/h
241 10-06-2020 20:00:00 18.8 C 12.72 g/m*3 18.8 C 0 km/h
242 10-06-2020 20:05:00 18.8 C 12.56 g/m*3 18.8 C 0 km/h
243 10-06-2020 20:10:00 18.8 C 12.72 g/m*3 18.8 C 0 km/h
244 10-06-2020 20:15:00 18.7 C 12.65 g/m*3 18.7 C 0 km/h
245 10-06-2020 20:20:00 18.7 C 12.65 g/m*3 18.7 C 0 km/h
246 10-06-2020 20:25:00 18.6 C 12.57 g/m*3 18.6 C 0 km/h
247 10-06-2020 20:30:00 18.6 C 12.57 g/m*3 18.6 C 1.6 km/h
248 10-06-2020 20:35:00 18.4 C 12.43 g/m*3 18.4 C 3.2 km/h
249 10-06-2020 20:40:00 18.3 C 12.35 g/m*3 18.3 C 1.6 km/h
250 10-06-2020 20:45:00 18.2 C 12.12 g/m*3 18.2 C 0 km/h
Sensor: Nr:Datum:Temp:Abs-Feuchte:Windchill:Wind:
Aussen-T/F 251 10-06-2020 20:50:00 18.1 C 12.21 g/m*3 18.1 C 1.6 km/h
252 10-06-2020 20:55:00 17.9 C 12.06 g/m*3 17.9 C 1.6 km/h
253 10-06-2020 21:00:00 17.7 C 11.92 g/m*3 17.7 C 4.8 km/h
254 10-06-2020 21:05:00 17.5 C 11.93 g/m*3 17.5 C 1.6 km/h
255 10-06-2020 21:10:00 17.3 C 11.79 g/m*3 17.3 C 1.6 km/h
256 10-06-2020 21:15:00 17.2 C 11.72 g/m*3 17.2 C 1.6 km/h
257 10-06-2020 21:20:00 16.9 C 11.36 g/m*3 16.9 C 3.2 km/h
258 10-06-2020 21:25:00 16.7 C 11.23 g/m*3 16.7 C 3.2 km/h
259 10-06-2020 21:30:00 16.6 C 11.16 g/m*3 16.6 C 3.2 km/h
260 10-06-2020 21:35:00 16.3 C 10.96 g/m*3 16.3 C 6.4 km/h
261 10-06-2020 21:40:00 16.2 C 10.89 g/m*3 16.2 C 6.4 km/h
262 10-06-2020 21:45:00 16 C 10.76 g/m*3 16 C 6.4 km/h
263 10-06-2020 21:50:00 15.9 C 10.83 g/m*3 15.9 C 6.4 km/h
264 10-06-2020 21:55:00 15.8 C 10.63 g/m*3 15.8 C 8.1 km/h
265 10-06-2020 22:00:00 15.7 C 10.7 g/m*3 15.7 C 4.8 km/h
266 10-06-2020 22:05:00 15.7 C 10.7 g/m*3 15.7 C 3.2 km/h
267 10-06-2020 22:10:00 15.6 C 10.77 g/m*3 15.6 C 4.8 km/h
268 10-06-2020 22:15:00 15.6 C 10.77 g/m*3 15.6 C 4.8 km/h
269 10-06-2020 22:20:00 15.5 C 10.71 g/m*3 15.5 C 4.8 km/h
270 10-06-2020 22:25:00 15.4 C 10.77 g/m*3 15.4 C 0 km/h
271 10-06-2020 22:30:00 15.4 C 10.77 g/m*3 15.4 C 0 km/h
272 10-06-2020 22:35:00 15.3 C 10.84 g/m*3 15.3 C 1.6 km/h
273 10-06-2020 22:40:00 15.3 C 10.84 g/m*3 15.3 C 1.6 km/h
274 10-06-2020 22:45:00 15.2 C 10.77 g/m*3 15.2 C 1.6 km/h
275 10-06-2020 22:50:00 15.2 C 10.9 g/m*3 15.2 C 3.2 km/h
Sensor: Nr:Datum:Temp:Abs-Feuchte:Windchill:Wind:
Aussen-T/F 276 10-06-2020 22:55:00 15.1 C 10.84 g/m*3 15.1 C 1.6 km/h
277 10-06-2020 23:00:00 15.1 C 10.97 g/m*3 15.1 C 0 km/h
278 10-06-2020 23:05:00 15.1 C 10.97 g/m*3 15.1 C 0 km/h
279 10-06-2020 23:10:00 15.1 C 10.97 g/m*3 15.1 C 0 km/h
280 10-06-2020 23:15:00 15.1 C 11.09 g/m*3 15.1 C 0 km/h
281 10-06-2020 23:20:00 15.1 C 11.22 g/m*3 15.1 C 0 km/h
282 10-06-2020 23:25:00 15.1 C 11.22 g/m*3 15.1 C 0 km/h
283 10-06-2020 23:30:00 15.1 C 10.97 g/m*3 15.1 C 3.2 km/h
284 10-06-2020 23:35:00 15.2 C 10.9 g/m*3 15.2 C 0 km/h
285 10-06-2020 23:40:00 15.3 C 10.97 g/m*3 15.3 C 3.2 km/h
286 10-06-2020 23:45:00 15.4 C 10.9 g/m*3 15.4 C 1.6 km/h
287 10-06-2020 23:50:00 15.5 C 10.97 g/m*3 15.5 C 8.1 km/h
288 10-06-2020 23:55:00 15.6 C 11.04 g/m*3 15.6 C 6.4 km/h
289 11-06-2020 00:00:00 15.7 C 11.24 g/m*3 15.7 C 6.4 km/h
290 11-06-2020 00:05:00 15.7 C 11.24 g/m*3 15.7 C 4.8 km/h
291 11-06-2020 00:10:00 15.7 C 11.37 g/m*3 15.7 C 0 km/h
292 11-06-2020 00:15:00 15.6 C 11.3 g/m*3 15.6 C 0 km/h
293 11-06-2020 00:20:00 15.6 C 11.44 g/m*3 15.6 C 0 km/h
294 11-06-2020 00:25:00 15.4 C 11.3 g/m*3 15.4 C 1.6 km/h
295 11-06-2020 00:30:00 15.3 C 11.23 g/m*3 15.3 C 0 km/h
296 11-06-2020 00:35:00 15.2 C 11.16 g/m*3 15.2 C 4.8 km/h
297 11-06-2020 00:40:00 15 C 11.16 g/m*3 15 C 1.6 km/h
298 11-06-2020 00:45:00 14.9 C 11.22 g/m*3 14.9 C 0 km/h
299 11-06-2020 00:50:00 14.8 C 11.15 g/m*3 14.8 C 0 km/h
300 11-06-2020 00:55:00 14.7 C 11.21 g/m*3 14.7 C 1.6 km/h
Sensor: Nr:Datum:Temp:Abs-Feuchte:Windchill:Wind:
Aussen-T/F 301 11-06-2020 01:00:00 14.6 C 11.14 g/m*3 14.6 C 4.8 km/h
302 11-06-2020 01:05:00 14.5 C 11.07 g/m*3 14.5 C 0 km/h
303 11-06-2020 01:10:00 14.4 C 11.13 g/m*3 14.4 C 0 km/h
304 11-06-2020 01:15:00 14.3 C 11.06 g/m*3 14.3 C 1.6 km/h
305 11-06-2020 01:20:00 14.2 C 10.99 g/m*3 14.2 C 0 km/h
306 11-06-2020 01:25:00 14.2 C 10.99 g/m*3 14.2 C 0 km/h
307 11-06-2020 01:30:00 14.1 C 10.92 g/m*3 14.1 C 0 km/h
308 11-06-2020 01:35:00 14.1 C 11.04 g/m*3 14.1 C 0 km/h
309 11-06-2020 01:40:00 14 C 10.98 g/m*3 14 C 0 km/h
310 11-06-2020 01:45:00 14 C 10.98 g/m*3 14 C 0 km/h
311 11-06-2020 01:50:00 14 C 10.98 g/m*3 14 C 0 km/h
312 11-06-2020 01:55:00 14 C 10.98 g/m*3 14 C 0 km/h
313 11-06-2020 02:00:00 13.9 C 11.03 g/m*3 13.9 C 0 km/h
314 11-06-2020 02:05:00 13.9 C 11.03 g/m*3 13.9 C 0 km/h
315 11-06-2020 02:10:00 13.9 C 11.03 g/m*3 13.9 C 0 km/h
316 11-06-2020 02:15:00 13.9 C 11.03 g/m*3 13.9 C 0 km/h
317 11-06-2020 02:20:00 13.9 C 11.03 g/m*3 13.9 C 0 km/h
318 11-06-2020 02:25:00 13.9 C 11.03 g/m*3 13.9 C 0 km/h
319 11-06-2020 02:30:00 13.8 C 11.08 g/m*3 13.8 C 0 km/h
320 11-06-2020 02:35:00 13.8 C 10.96 g/m*3 13.8 C 0 km/h
321 11-06-2020 02:40:00 13.8 C 10.96 g/m*3 13.8 C 0 km/h
322 11-06-2020 02:45:00 13.8 C 11.08 g/m*3 13.8 C 0 km/h
323 11-06-2020 02:50:00 13.8 C 11.08 g/m*3 13.8 C 0 km/h
324 11-06-2020 02:55:00 13.7 C 11.01 g/m*3 13.7 C 0 km/h
325 11-06-2020 03:00:00 13.7 C 11.01 g/m*3 13.7 C 0 km/h
Sensor: Nr:Datum:Temp:Abs-Feuchte:Windchill:Wind:
Aussen-T/F 326 11-06-2020 03:05:00 13.6 C 10.95 g/m*3 13.6 C 1.6 km/h
327 11-06-2020 03:10:00 13.6 C 10.95 g/m*3 13.6 C 0 km/h
328 11-06-2020 03:15:00 13.5 C 10.88 g/m*3 13.5 C 0 km/h
329 11-06-2020 03:20:00 13.5 C 10.88 g/m*3 13.5 C 0 km/h
330 11-06-2020 03:25:00 13.4 C 10.81 g/m*3 13.4 C 0 km/h
331 11-06-2020 03:30:00 13.4 C 10.81 g/m*3 13.4 C 0 km/h
332 11-06-2020 03:35:00 13.3 C 10.74 g/m*3 13.3 C 0 km/h
333 11-06-2020 03:40:00 13.2 C 10.68 g/m*3 13.2 C 0 km/h
334 11-06-2020 03:45:00 13.2 C 10.68 g/m*3 13.2 C 1.6 km/h
335 11-06-2020 03:50:00 13.1 C 10.61 g/m*3 13.1 C 1.6 km/h
336 11-06-2020 03:55:00 13.1 C 10.61 g/m*3 13.1 C 0 km/h
337 11-06-2020 04:00:00 13 C 10.66 g/m*3 13 C 1.6 km/h
338 11-06-2020 04:05:00 13 C 10.66 g/m*3 13 C 0 km/h
339 11-06-2020 04:10:00 12.9 C 10.59 g/m*3 12.9 C 0 km/h
340 11-06-2020 04:15:00 12.9 C 10.48 g/m*3 12.9 C 0 km/h
341 11-06-2020 04:20:00 12.8 C 10.42 g/m*3 12.8 C 0 km/h
342 11-06-2020 04:25:00 12.8 C 10.53 g/m*3 12.8 C 1.6 km/h
343 11-06-2020 04:30:00 12.8 C 10.53 g/m*3 12.8 C 0 km/h
344 11-06-2020 04:35:00 12.7 C 10.46 g/m*3 12.7 C 0 km/h
345 11-06-2020 04:40:00 12.7 C 10.46 g/m*3 12.7 C 0 km/h
346 11-06-2020 04:45:00 12.6 C 10.4 g/m*3 12.6 C 0 km/h
347 11-06-2020 04:50:00 12.6 C 10.4 g/m*3 12.6 C 0 km/h
348 11-06-2020 04:55:00 12.5 C 10.33 g/m*3 12.5 C 1.6 km/h
349 11-06-2020 05:00:00 12.5 C 10.33 g/m*3 12.5 C 1.6 km/h
350 11-06-2020 05:05:00 12.4 C 10.27 g/m*3 12.4 C 1.6 km/h
Sensor: Nr:Datum:Temp:Abs-Feuchte:Windchill:Wind:
Aussen-T/F 351 11-06-2020 05:10:00 12.4 C 10.27 g/m*3 12.4 C 0 km/h
352 11-06-2020 05:15:00 12.4 C 10.27 g/m*3 12.4 C 0 km/h
353 11-06-2020 05:20:00 12.3 C 10.21 g/m*3 12.3 C 0 km/h
354 11-06-2020 05:25:00 12.3 C 10.21 g/m*3 12.3 C 0 km/h
355 11-06-2020 05:30:00 12.3 C 10.21 g/m*3 12.3 C 0 km/h
356 11-06-2020 05:35:00 12.3 C 10.21 g/m*3 12.3 C 0 km/h
357 11-06-2020 05:40:00 12.3 C 10.21 g/m*3 12.3 C 0 km/h
358 11-06-2020 05:45:00 12.3 C 10.32 g/m*3 12.3 C 0 km/h
359 11-06-2020 05:50:00 12.4 C 10.38 g/m*3 12.4 C 0 km/h
360 11-06-2020 05:55:00 12.4 C 10.38 g/m*3 12.4 C 0 km/h
361 11-06-2020 06:00:00 12.4 C 10.38 g/m*3 12.4 C 0 km/h
362 11-06-2020 06:05:00 12.5 C 10.44 g/m*3 12.5 C 0 km/h
363 11-06-2020 06:10:00 12.6 C 10.51 g/m*3 12.6 C 0 km/h
364 11-06-2020 06:15:00 12.6 C 10.51 g/m*3 12.6 C 0 km/h
365 11-06-2020 06:20:00 12.7 C 10.58 g/m*3 12.7 C 0 km/h
366 11-06-2020 06:25:00 12.7 C 10.58 g/m*3 12.7 C 0 km/h
367 11-06-2020 06:30:00 12.8 C 10.64 g/m*3 12.8 C 0 km/h
368 11-06-2020 06:35:00 12.8 C 10.64 g/m*3 12.8 C 0 km/h
369 11-06-2020 06:40:00 12.8 C 10.64 g/m*3 12.8 C 0 km/h
370 11-06-2020 06:45:00 12.9 C 10.71 g/m*3 12.9 C 0 km/h
371 11-06-2020 06:50:00 13 C 10.77 g/m*3 13 C 0 km/h
372 11-06-2020 06:55:00 13.1 C 10.84 g/m*3 13.1 C 0 km/h
373 11-06-2020 07:00:00 13.1 C 10.84 g/m*3 13.1 C 0 km/h
374 11-06-2020 07:05:00 13.1 C 10.84 g/m*3 13.1 C 0 km/h
375 11-06-2020 07:10:00 13.2 C 10.91 g/m*3 13.2 C 1.6 km/h
Sensor: Nr:Datum:Temp:Abs-Feuchte:Windchill:Wind:
Aussen-T/F 376 11-06-2020 07:15:00 13.2 C 10.91 g/m*3 13.2 C 1.6 km/h
377 11-06-2020 07:20:00 13.3 C 11.09 g/m*3 13.3 C 0 km/h
378 11-06-2020 07:25:00 13.4 C 11.16 g/m*3 13.4 C 0 km/h
379 11-06-2020 07:30:00 13.4 C 11.04 g/m*3 13.4 C 0 km/h
380 11-06-2020 07:35:00 13.6 C 11.18 g/m*3 13.6 C 0 km/h
381 11-06-2020 07:40:00 13.6 C 11.3 g/m*3 13.6 C 0 km/h
382 11-06-2020 07:45:00 13.7 C 11.25 g/m*3 13.7 C 0 km/h
383 11-06-2020 07:50:00 13.7 C 11.25 g/m*3 13.7 C 0 km/h
384 11-06-2020 07:55:00 13.8 C 11.32 g/m*3 13.8 C 0 km/h
385 11-06-2020 08:00:00 13.8 C 11.32 g/m*3 13.8 C 0 km/h
386 11-06-2020 08:05:00 13.9 C 11.39 g/m*3 13.9 C 0 km/h
387 11-06-2020 08:10:00 13.9 C 11.39 g/m*3 13.9 C 0 km/h
388 11-06-2020 08:15:00 13.9 C 11.39 g/m*3 13.9 C 0 km/h
389 11-06-2020 08:20:00 14 C 11.46 g/m*3 14 C 0 km/h
390 11-06-2020 08:25:00 14 C 11.46 g/m*3 14 C 0 km/h
391 11-06-2020 08:30:00 14.1 C 11.41 g/m*3 14.1 C 0 km/h
392 11-06-2020 08:35:00 14.1 C 11.53 g/m*3 14.1 C 0 km/h
393 11-06-2020 08:40:00 14.2 C 11.6 g/m*3 14.2 C 0 km/h
394 11-06-2020 08:45:00 14.2 C 11.6 g/m*3 14.2 C 0 km/h
395 11-06-2020 08:50:00 14.2 C 11.48 g/m*3 14.2 C 0 km/h
396 11-06-2020 08:55:00 14.3 C 11.55 g/m*3 14.3 C 0 km/h
397 11-06-2020 09:00:00 14.4 C 11.62 g/m*3 14.4 C 0 km/h
398 11-06-2020 09:05:00 14.5 C 11.69 g/m*3 14.5 C 1.6 km/h
399 11-06-2020 09:10:00 14.6 C 11.76 g/m*3 14.6 C 0 km/h
400 11-06-2020 09:15:00 14.7 C 11.83 g/m*3 14.7 C 0 km/h
Sensor: Nr:Datum:Temp:Abs-Feuchte:Windchill:Wind:
Aussen-T/F 401 11-06-2020 09:20:00 14.9 C 11.98 g/m*3 14.9 C 1.6 km/h
402 11-06-2020 09:25:00 14.9 C 11.85 g/m*3 14.9 C 1.6 km/h
403 11-06-2020 09:30:00 14.8 C 11.78 g/m*3 14.8 C 4.8 km/h
404 11-06-2020 09:35:00 14.7 C 11.58 g/m*3 14.7 C 3.2 km/h
405 11-06-2020 09:40:00 14.7 C 11.58 g/m*3 14.7 C 1.6 km/h
406 11-06-2020 09:45:00 14.8 C 11.78 g/m*3 14.8 C 1.6 km/h
407 11-06-2020 09:50:00 14.9 C 11.85 g/m*3 14.9 C 0 km/h
408 11-06-2020 09:55:00 14.9 C 11.73 g/m*3 14.9 C 3.2 km/h
409 11-06-2020 10:00:00 15 C 11.8 g/m*3 15 C 0 km/h
410 11-06-2020 10:05:00 15.2 C 11.94 g/m*3 15.2 C 0 km/h
411 11-06-2020 10:10:00 15.2 C 11.94 g/m*3 15.2 C 1.6 km/h
412 11-06-2020 10:15:00 15.3 C 12.01 g/m*3 15.3 C 0 km/h
413 11-06-2020 10:20:00 15.3 C 11.88 g/m*3 15.3 C 1.6 km/h
414 11-06-2020 10:25:00 15.4 C 11.96 g/m*3 15.4 C 3.2 km/h
415 11-06-2020 10:30:00 15.6 C 12.1 g/m*3 15.6 C 3.2 km/h
416 11-06-2020 10:35:00 15.6 C 12.1 g/m*3 15.6 C 1.6 km/h
417 11-06-2020 10:40:00 15.7 C 12.18 g/m*3 15.7 C 1.6 km/h
418 11-06-2020 10:45:00 15.8 C 12.11 g/m*3 15.8 C 3.2 km/h
419 11-06-2020 10:50:00 15.9 C 12.19 g/m*3 15.9 C 1.6 km/h
420 11-06-2020 10:55:00 16 C 12.13 g/m*3 16 C 4.8 km/h
421 11-06-2020 11:00:00 16.2 C 12.41 g/m*3 16.2 C 4.8 km/h
422 11-06-2020 11:05:00 16.3 C 12.35 g/m*3 16.3 C 1.6 km/h
423 11-06-2020 11:10:00 16.6 C 12.57 g/m*3 16.6 C 1.6 km/h
424 11-06-2020 11:15:00 16.8 C 12.44 g/m*3 16.8 C 4.8 km/h
425 11-06-2020 11:20:00 16.9 C 12.37 g/m*3 16.9 C 3.2 km/h
Sensor: Nr:Datum:Temp:Abs-Feuchte:Windchill:Wind:
Aussen-T/F 426 11-06-2020 11:25:00 16.9 C 12.23 g/m*3 16.9 C 3.2 km/h
427 11-06-2020 11:30:00 17.1 C 12.37 g/m*3 17.1 C 4.8 km/h
428 11-06-2020 11:35:00 17.1 C 12.23 g/m*3 17.1 C 6.4 km/h
429 11-06-2020 11:40:00 17.2 C 12.15 g/m*3 17.2 C 4.8 km/h
430 11-06-2020 11:45:00 17.2 C 12.01 g/m*3 17.2 C 3.2 km/h
431 11-06-2020 11:50:00 17.3 C 12.08 g/m*3 17.3 C 6.4 km/h
432 11-06-2020 11:55:00 17.3 C 11.93 g/m*3 17.3 C 4.8 km/h
433 11-06-2020 12:00:00 17.1 C 11.79 g/m*3 17.1 C 4.8 km/h
434 11-06-2020 12:05:00 17 C 11.87 g/m*3 17 C 3.2 km/h
435 11-06-2020 12:10:00 17.1 C 11.94 g/m*3 17.1 C 4.8 km/h
436 11-06-2020 12:15:00 17.2 C 12.01 g/m*3 17.2 C 4.8 km/h
437 11-06-2020 12:20:00 17.3 C 11.79 g/m*3 17.3 C 4.8 km/h
438 11-06-2020 12:25:00 17.4 C 11.86 g/m*3 17.4 C 3.2 km/h
439 11-06-2020 12:30:00 17.6 C 12 g/m*3 17.6 C 4.8 km/h
440 11-06-2020 12:35:00 17.6 C 11.85 g/m*3 17.6 C 4.8 km/h
441 11-06-2020 12:40:00 17.7 C 11.77 g/m*3 17.7 C 4.8 km/h
442 11-06-2020 12:45:00 17.7 C 11.77 g/m*3 17.7 C 4.8 km/h
443 11-06-2020 12:50:00 17.8 C 11.99 g/m*3 17.8 C 1.6 km/h
444 11-06-2020 12:55:00 17.9 C 11.76 g/m*3 17.9 C 8.1 km/h
445 11-06-2020 13:00:00 18.2 C 12.12 g/m*3 18.2 C 4.8 km/h
446 11-06-2020 13:05:00 18.3 C 12.04 g/m*3 18.3 C 4.8 km/h
447 11-06-2020 13:10:00 18.2 C 11.81 g/m*3 18.2 C 8.1 km/h
448 11-06-2020 13:15:00 18.2 C 11.97 g/m*3 18.2 C 4.8 km/h
449 11-06-2020 13:20:00 18.2 C 11.81 g/m*3 18.2 C 6.4 km/h
450 11-06-2020 13:25:00 18.2 C 11.97 g/m*3 18.2 C 4.8 km/h
Sensor: Nr:Datum:Temp:Abs-Feuchte:Windchill:Wind:
Aussen-T/F 451 11-06-2020 13:30:00 18.3 C 11.88 g/m*3 18.3 C 6.4 km/h
452 11-06-2020 13:35:00 18.3 C 11.88 g/m*3 18.3 C 0 km/h
453 11-06-2020 13:40:00 18.5 C 11.87 g/m*3 18.5 C 8.1 km/h
454 11-06-2020 13:45:00 18.6 C 12.1 g/m*3 18.6 C 8.1 km/h
455 11-06-2020 13:50:00 18.8 C 12.08 g/m*3 18.8 C 4.8 km/h
456 11-06-2020 13:55:00 18.8 C 11.76 g/m*3 18.8 C 8.1 km/h
457 11-06-2020 14:00:00 18.8 C 11.6 g/m*3 18.8 C 9.7 km/h
458 11-06-2020 14:05:00 18.9 C 11.99 g/m*3 18.9 C 1.6 km/h
459 11-06-2020 14:10:00 19.1 C 11.97 g/m*3 19.1 C 4.8 km/h
460 11-06-2020 14:15:00 19.1 C 11.8 g/m*3 19.1 C 6.4 km/h
461 11-06-2020 14:20:00 19.2 C 11.87 g/m*3 19.2 C 8.1 km/h
462 11-06-2020 14:25:00 19.2 C 11.87 g/m*3 19.2 C 6.4 km/h
463 11-06-2020 14:30:00 19.4 C 11.68 g/m*3 19.4 C 8.1 km/h
464 11-06-2020 14:35:00 19.5 C 11.75 g/m*3 19.5 C 6.4 km/h
465 11-06-2020 14:40:00 19.6 C 11.82 g/m*3 19.6 C 9.7 km/h
466 11-06-2020 14:45:00 19.6 C 11.65 g/m*3 19.6 C 8.1 km/h
467 11-06-2020 14:50:00 19.6 C 11.65 g/m*3 19.6 C 9.7 km/h
468 11-06-2020 14:55:00 19.6 C 11.82 g/m*3 19.6 C 4.8 km/h
469 11-06-2020 15:00:00 19.5 C 11.58 g/m*3 19.5 C 6.4 km/h
470 11-06-2020 15:05:00 19.4 C 11.51 g/m*3 19.4 C 9.7 km/h
471 11-06-2020 15:10:00 19.1 C 11.31 g/m*3 19.1 C 6.4 km/h
472 11-06-2020 15:15:00 18.9 C 11.5 g/m*3 18.9 C 8.1 km/h
473 11-06-2020 15:20:00 18.8 C 12.08 g/m*3 18.8 C 0 km/h
474 11-06-2020 15:25:00 18.8 C 12.24 g/m*3 18.8 C 0 km/h
475 11-06-2020 15:30:00 18.8 C 12.72 g/m*3 18.8 C 1.6 km/h
Sensor: Nr:Datum:Temp:Abs-Feuchte:Windchill:Wind:
Aussen-T/F 476 11-06-2020 15:35:00 18.7 C 13.13 g/m*3 18.7 C 0 km/h
477 11-06-2020 15:40:00 18.4 C 12.58 g/m*3 18.4 C 3.2 km/h
478 11-06-2020 15:45:00 18.2 C 12.12 g/m*3 18.2 C 0 km/h
479 11-06-2020 15:50:00 18.1 C 11.9 g/m*3 18.1 C 0 km/h
480 11-06-2020 15:55:00 18.1 C 11.59 g/m*3 18.1 C 3.2 km/h
481 11-06-2020 16:00:00 18.2 C 11.5 g/m*3 18.2 C 4.8 km/h
482 11-06-2020 16:05:00 18.3 C 11.26 g/m*3 18.3 C 6.4 km/h
483 11-06-2020 16:10:00 18.6 C 11.14 g/m*3 18.6 C 6.4 km/h
484 11-06-2020 16:15:00 18.7 C 11.21 g/m*3 18.7 C 4.8 km/h
485 11-06-2020 16:20:00 18.8 C 10.95 g/m*3 18.8 C 6.4 km/h
486 11-06-2020 16:25:00 18.9 C 11.02 g/m*3 18.9 C 4.8 km/h
487 11-06-2020 16:30:00 19.1 C 10.98 g/m*3 19.1 C 4.8 km/h
488 11-06-2020 16:35:00 19.2 C 11.05 g/m*3 19.2 C 6.4 km/h
489 11-06-2020 16:40:00 19.4 C 10.84 g/m*3 19.4 C 6.4 km/h
490 11-06-2020 16:45:00 19.5 C 10.91 g/m*3 19.5 C 8.1 km/h
491 11-06-2020 16:50:00 19.6 C 10.97 g/m*3 19.6 C 6.4 km/h
492 11-06-2020 16:55:00 19.6 C 10.64 g/m*3 19.6 C 9.7 km/h
493 11-06-2020 17:00:00 19.4 C 10.84 g/m*3 19.4 C 8.1 km/h
494 11-06-2020 17:05:00 19.4 C 10.84 g/m*3 19.4 C 4.8 km/h
495 11-06-2020 17:10:00 19.3 C 10.95 g/m*3 19.3 C 8.1 km/h
496 11-06-2020 17:15:00 19.3 C 10.95 g/m*3 19.3 C 6.4 km/h
497 11-06-2020 17:20:00 19.2 C 11.05 g/m*3 19.2 C 6.4 km/h
498 11-06-2020 17:25:00 19.1 C 11.15 g/m*3 19.1 C 4.8 km/h
499 11-06-2020 17:30:00 19.1 C 11.31 g/m*3 19.1 C 3.2 km/h
500 11-06-2020 17:35:00 19.1 C 11.47 g/m*3 19.1 C 4.8 km/h
Sensor: Nr:Datum:Temp:Abs-Feuchte:Windchill:Wind:
Aussen-T/F 501 11-06-2020 17:40:00 19.1 C 11.31 g/m*3 19.1 C 4.8 km/h
502 11-06-2020 17:45:00 19 C 11.24 g/m*3 19 C 4.8 km/h
503 11-06-2020 17:50:00 19.1 C 12.13 g/m*3 19.1 C 0 km/h
504 11-06-2020 17:55:00 19.1 C 12.62 g/m*3 19.1 C 0 km/h
505 11-06-2020 18:00:00 19 C 12.55 g/m*3 19 C 0 km/h
506 11-06-2020 18:05:00 18.9 C 12.64 g/m*3 18.9 C 0 km/h
507 11-06-2020 18:10:00 18.7 C 12.33 g/m*3 18.7 C 3.2 km/h
508 11-06-2020 18:15:00 18.6 C 12.57 g/m*3 18.6 C 0 km/h
509 11-06-2020 18:20:00 18.4 C 12.58 g/m*3 18.4 C 0 km/h
510 11-06-2020 18:25:00 18.2 C 12.59 g/m*3 18.2 C 0 km/h
511 11-06-2020 18:30:00 18.1 C 12.36 g/m*3 18.1 C 0 km/h
512 11-06-2020 18:35:00 17.9 C 12.37 g/m*3 17.9 C 1.6 km/h
513 11-06-2020 18:40:00 17.8 C 12.45 g/m*3 17.8 C 0 km/h
514 11-06-2020 18:45:00 17.7 C 12.37 g/m*3 17.7 C 1.6 km/h
515 11-06-2020 18:50:00 17.7 C 12.52 g/m*3 17.7 C 1.6 km/h
516 11-06-2020 18:55:00 17.5 C 12.08 g/m*3 17.5 C 1.6 km/h
517 11-06-2020 19:00:00 17.6 C 12 g/m*3 17.6 C 4.8 km/h
518 11-06-2020 19:05:00 17.6 C 11.7 g/m*3 17.6 C 3.2 km/h
519 11-06-2020 19:10:00 17.6 C 11.7 g/m*3 17.6 C 1.6 km/h
520 11-06-2020 19:15:00 17.6 C 11.7 g/m*3 17.6 C 3.2 km/h
521 11-06-2020 19:20:00 17.7 C 11.62 g/m*3 17.7 C 4.8 km/h
522 11-06-2020 19:25:00 17.7 C 11.62 g/m*3 17.7 C 4.8 km/h
523 11-06-2020 19:30:00 17.7 C 11.77 g/m*3 17.7 C 3.2 km/h
524 11-06-2020 19:35:00 17.8 C 12.29 g/m*3 17.8 C 0 km/h
525 11-06-2020 19:40:00 17.8 C 12.45 g/m*3 17.8 C 0 km/h
Sensor: Nr:Datum:Temp:Abs-Feuchte:Windchill:Wind:
Aussen-T/F 526 11-06-2020 19:45:00 17.7 C 12.37 g/m*3 17.7 C 0 km/h
527 11-06-2020 19:50:00 17.6 C 12.45 g/m*3 17.6 C 0 km/h
528 11-06-2020 19:55:00 17.6 C 12.45 g/m*3 17.6 C 0 km/h
529 11-06-2020 20:00:00 17.4 C 12.3 g/m*3 17.4 C 0 km/h
530 11-06-2020 20:05:00 17.4 C 12.45 g/m*3 17.4 C 0 km/h
531 11-06-2020 20:10:00 17.3 C 12.37 g/m*3 17.3 C 0 km/h
532 11-06-2020 20:15:00 17.3 C 12.52 g/m*3 17.3 C 0 km/h
533 11-06-2020 20:20:00 17.2 C 12.45 g/m*3 17.2 C 0 km/h
534 11-06-2020 20:25:00 17.1 C 12.37 g/m*3 17.1 C 0 km/h
535 11-06-2020 20:30:00 17.1 C 12.37 g/m*3 17.1 C 0 km/h
536 11-06-2020 20:35:00 17.1 C 12.37 g/m*3 17.1 C 0 km/h
537 11-06-2020 20:40:00 17 C 12.44 g/m*3 17 C 0 km/h
538 11-06-2020 20:45:00 17 C 12.3 g/m*3 17 C 0 km/h
539 11-06-2020 20:50:00 16.9 C 12.23 g/m*3 16.9 C 0 km/h
540 11-06-2020 20:55:00 16.9 C 12.23 g/m*3 16.9 C 0 km/h
541 11-06-2020 21:00:00 16.8 C 12.15 g/m*3 16.8 C 0 km/h
542 11-06-2020 21:05:00 16.7 C 12.08 g/m*3 16.7 C 0 km/h
543 11-06-2020 21:10:00 16.5 C 11.94 g/m*3 16.5 C 0 km/h
544 11-06-2020 21:15:00 16.4 C 11.86 g/m*3 16.4 C 0 km/h
545 11-06-2020 21:20:00 16.2 C 11.72 g/m*3 16.2 C 0 km/h
546 11-06-2020 21:25:00 16 C 11.58 g/m*3 16 C 0 km/h
547 11-06-2020 21:30:00 15.8 C 11.58 g/m*3 15.8 C 0 km/h
548 11-06-2020 21:35:00 15.7 C 11.51 g/m*3 15.7 C 0 km/h
549 11-06-2020 21:40:00 15.6 C 11.57 g/m*3 15.6 C 0 km/h
550 11-06-2020 21:45:00 15.3 C 11.36 g/m*3 15.3 C 0 km/h
Sensor: Nr:Datum:Temp:Abs-Feuchte:Windchill:Wind:
Aussen-T/F 551 11-06-2020 21:50:00 15.2 C 11.29 g/m*3 15.2 C 0 km/h
552 11-06-2020 21:55:00 15 C 11.16 g/m*3 15 C 0 km/h
553 11-06-2020 22:00:00 14.8 C 11.15 g/m*3 14.8 C 1.6 km/h
554 11-06-2020 22:05:00 14.7 C 11.08 g/m*3 14.7 C 1.6 km/h
555 11-06-2020 22:10:00 14.6 C 11.01 g/m*3 14.6 C 1.6 km/h
556 11-06-2020 22:15:00 14.5 C 10.94 g/m*3 14.5 C 0 km/h
557 11-06-2020 22:20:00 14.4 C 11 g/m*3 14.4 C 4.8 km/h
558 11-06-2020 22:25:00 14.3 C 10.93 g/m*3 14.3 C 0 km/h
559 11-06-2020 22:30:00 14.2 C 10.87 g/m*3 14.2 C 0 km/h
560 11-06-2020 22:35:00 14.1 C 10.92 g/m*3 14.1 C 1.6 km/h
561 11-06-2020 22:40:00 14 C 10.86 g/m*3 14 C 1.6 km/h
562 11-06-2020 22:45:00 13.9 C 10.79 g/m*3 13.9 C 1.6 km/h
563 11-06-2020 22:50:00 13.8 C 10.72 g/m*3 13.8 C 4.8 km/h
564 11-06-2020 22:55:00 13.8 C 10.84 g/m*3 13.8 C 1.6 km/h
565 11-06-2020 23:00:00 13.7 C 10.78 g/m*3 13.7 C 6.4 km/h
566 11-06-2020 23:05:00 13.7 C 10.78 g/m*3 13.7 C 1.6 km/h
567 11-06-2020 23:10:00 13.7 C 10.78 g/m*3 13.7 C 0 km/h
568 11-06-2020 23:15:00 13.6 C 10.71 g/m*3 13.6 C 0 km/h
569 11-06-2020 23:20:00 13.4 C 10.58 g/m*3 13.4 C 0 km/h
570 11-06-2020 23:25:00 13.3 C 10.63 g/m*3 13.3 C 0 km/h
571 11-06-2020 23:30:00 13.3 C 10.63 g/m*3 13.3 C 0 km/h
572 11-06-2020 23:35:00 13.3 C 10.63 g/m*3 13.3 C 0 km/h
573 11-06-2020 23:40:00 13.2 C 10.56 g/m*3 13.2 C 0 km/h
574 11-06-2020 23:45:00 13.1 C 10.5 g/m*3 13.1 C 0 km/h
575 11-06-2020 23:50:00 13.1 C 10.5 g/m*3 13.1 C 0 km/h
Sensor: Nr:Datum:Temp:Abs-Feuchte:Windchill:Wind:
Aussen-T/F 576 11-06-2020 23:55:00 12.9 C 10.37 g/m*3 12.9 C 0 km/h

Legende:
   Min
   Max


Maximal/Minimal-Werte vom 10.06.2020 - 11.06.2020

Sensor Min Max Avg
Temp
(Aussen-T/F)
12.3 °C
10-06-2020  01:45:00
20.1 °C
10-06-2020  17:40:00
15.57 °C
Abs-Feuchte
(Aussen-T/F)
10.21 g/m*3
11-06-2020  05:20:00
13.13 g/m*3
11-06-2020  15:35:00
11.28 g/m*3
Windchill
(Aussen-T/F)
12.3 C
10-06-2020  01:45:00
20.1 C
10-06-2020  17:40:00
15.54 C

Die Daten stammen von einer Davis Vantage Pro 2 Wetter-Station und werden unter Linux mit der Software wview2wettercgi und aufbereitet. Alle Angaben erfolgen ohne Gewähr für ihre Vollständigkeit oder Richtigkeit.
Kontakt: Rainer Krienke krienke@uni-koblenz.de . Meine Webseiten an der Uni Koblenz oder privat.
Version: $Revision: 0.78 $